[[{"header":{"parameterUnit":"m.s-1","parameterCategory":2,"la1":30.2991,"la2":30.254,"lo1":-89.0895,"lo2":-89.0444,"dy":0.0017,"dx":0.0017,"nx":28,"ny":28,"refTime":"2024-12-04T09:00:00:Z","depth":"0","parameterNumber":2,"parameterNumberName":"U-component_of_CURRENTS"},"data":[0,0,0,0,0,0,0,0,0,0,0,0,0,0,0,0,0,0,0,0,0,0,0,0,0,0,0,0,0,0,0,0,0,0,0,0,0,0,0,0,0,0,0,0,0,0,0,0,0,0,0,0,0,0,0,0,0,0,-0.2397,-0.2398,0,-0.243,-0.243,-0.243,-0.2397,-0.2396,-0.2395,-0.2394,-0.2371,-0.2371,-0.2372,0,0,0,0,0,0,0,0,0,0,0,0,0,-0.2312,-0.2314,-0.2397,-0.2398,-0.2399,-0.243,-0.243,-0.243,-0.2398,-0.2396,-0.2395,-0.2394,-0.2371,-0.2371,-0.2372,0,0,0,0,0,0,0,0,0,0,0,0,0,-0.2345,-0.2314,-0.2397,-0.2388,-0.2388,-0.243,-0.243,-0.243,-0.2398,-0.2396,-0.2395,-0.2393,-0.2371,-0.2371,-0.2372,-0.2405,0,0,-0.2373,-0.2373,0,0,0,0,0,0,0,0,-0.2343,-0.2347,-0.2389,-0.2389,-0.2389,-0.2411,-0.2392,-0.242,-0.2398,-0.2391,-0.2394,-0.2393,-0.2382,-0.2382,-0.2388,-0.2404,-0.2403,-0.2373,-0.2373,-0.2374,-0.2374,0,0,0,0,0,0,0,-0.234,-0.2346,-0.2407,-0.239,-0.239,-0.2385,-0.2388,-0.2397,-0.2391,-0.2391,-0.239,-0.2399,-0.2381,-0.2387,-0.2387,-0.2402,-0.2373,-0.2374,-0.2374,-0.2374,-0.2429,-0.243,0,0,0,0,0,0,-0.2344,-0.2344,-0.2406,-0.2408,-0.2365,-0.2388,-0.2391,-0.2403,-0.2392,-0.2391,-0.24,-0.2397,-0.2387,-0.2386,-0.2386,-0.2414,-0.2374,-0.2374,-0.2374,-0.2428,-0.2429,-0.243,0,0,0,0,0,0,-0.2343,-0.235,-0.2405,-0.2379,-0.2386,-0.2391,-0.2405,-0.2404,-0.2404,-0.24,-0.2396,-0.24,-0.2386,-0.2385,-0.2394,-0.2413,-0.2374,-0.2375,-0.2426,-0.2428,-0.243,-0.2477,0,0,0,0,0,0,-0.234,-0.2349,-0.2353,-0.2379,-0.2388,-0.2432,-0.2407,-0.2406,-0.2414,-0.241,-0.2399,-0.2396,-0.2385,-0.2393,-0.2394,-0.2413,-0.2375,-0.2425,-0.2427,-0.2429,-0.2474,-0.248,-0.2485,0,0,0,0,0,-0.2337,-0.2355,-0.2353,-0.236,-0.2395,-0.2434,-0.2437,-0.2433,-0.2415,-0.2425,-0.2414,-0.2396,-0.2407,-0.2395,-0.2396,-0.2415,-0.2424,-0.2426,-0.2429,-0.2471,-0.2479,-0.2485,0,0,0,0,0,0,-0.2319,-0.2355,-0.2352,-0.2379,-0.2404,-0.2429,-0.2438,-0.2437,-0.2438,-0.2428,-0.2412,-0.241,-0.2425,-0.2417,-0.2403,-0.2438,-0.2412,-0.2415,-0.2444,-0.2451,-0.2457,-0.2458,-0.2375,0,0,0,0,0,-0.2319,-0.2337,-0.2373,-0.2391,-0.2406,-0.2421,-0.2433,-0.2436,-0.2446,-0.2444,-0.2438,-0.2433,-0.2441,-0.2441,-0.2446,-0.2468,-0.246,-0.248,-0.2486,-0.2491,-0.2493,-0.2496,-0.2502,-0.2439,-0.2439,-0.2439,0,0,-0.2315,-0.2337,-0.2346,-0.2387,-0.2403,-0.2438,-0.2423,-0.245,-0.2471,-0.2443,-0.2459,-0.2454,-0.2451,-0.2473,-0.2479,-0.2465,-0.2509,-0.2494,-0.2498,-0.2498,-0.25,-0.2506,-0.2511,-0.2441,-0.244,-0.244,0,0,-0.233,-0.234,-0.2366,-0.2394,-0.2429,-0.2446,-0.2455,-0.2485,-0.2487,-0.2512,-0.2495,-0.2503,-0.2512,-0.2517,-0.252,-0.2563,-0.254,-0.2561,-0.2591,-0.2594,-0.2599,-0.2603,-0.2616,-0.2621,-0.2563,-0.2563,-0.2564,0,-0.2322,-0.2359,-0.2379,-0.2417,-0.2438,-0.2452,-0.2487,-0.2505,-0.2529,-0.2536,-0.252,-0.2541,-0.2537,-0.2565,-0.2577,-0.2577,-0.2572,-0.2563,-0.2601,-0.2605,-0.2608,-0.262,-0.2625,-0.2566,-0.2566,-0.2565,-0.2565,0,-0.2363,-0.2391,-0.2411,-0.2459,-0.2487,-0.2519,-0.2555,-0.2573,-0.2574,-0.2587,-0.2609,-0.2608,-0.2615,-0.2622,-0.2612,-0.264,-0.2627,-0.2607,-0.2581,-0.2617,-0.2628,-0.2632,-0.257,-0.2569,-0.2568,-0.2567,0,0,-0.2342,-0.2423,-0.2426,-0.245,-0.251,-0.2535,-0.258,-0.2621,-0.2641,-0.2657,-0.268,-0.2697,-0.2683,-0.2686,-0.2677,-0.2683,-0.271,-0.2655,-0.2654,-0.2664,-0.2721,-0.2689,-0.269,-0.2688,-0.2689,-0.2689,-0.2724,0,-0.2361,-0.2429,-0.2468,-0.252,-0.2555,-0.2589,-0.2629,-0.2665,-0.2685,-0.2712,-0.2718,-0.2734,-0.2713,-0.2712,-0.2718,-0.2711,-0.272,-0.2703,-0.2687,-0.2687,-0.2651,-0.2694,-0.2611,-0.2632,-0.2727,-0.2728,-0.2728,0,-0.2379,-0.2422,-0.2481,-0.2546,-0.2564,-0.2597,-0.2647,-0.2687,-0.2736,-0.2751,-0.2771,-0.2773,-0.2794,-0.2763,-0.2773,-0.2758,-0.2744,-0.2737,-0.2738,-0.2691,-0.2662,-0.2609,-0.2635,-0.2628,-0.2734,-0.2734,-0.2734,0,-0.2339,-0.2422,-0.2461,-0.2486,-0.2571,-0.2593,-0.263,-0.2688,-0.2717,-0.277,-0.279,-0.2815,-0.282,-0.2814,-0.2798,-0.2784,-0.2804,-0.2782,-0.2746,-0.2744,-0.2663,-0.2652,-0.2675,-0.2788,-0.2788,-0.2788,-0.2788,0,-0.2335,-0.2363,-0.2441,-0.2463,-0.2494,-0.2567,-0.2602,-0.2646,-0.2714,-0.2747,-0.2793,-0.2817,-0.2828,-0.2838,-0.2821,-0.2799,-0.2821,-0.2762,-0.2752,-0.2679,-0.267,-0.265,-0.2653,-0.2789,-0.2789,-0.2789,-0.2789,0,-0.2278,-0.2341,-0.2379,-0.2458,-0.2476,-0.2491,-0.2567,-0.2598,-0.2675,-0.2722,-0.2739,-0.2816,-0.2841,-0.2853,-0.2854,-0.2822,-0.2765,-0.2793,-0.2715,-0.2694,-0.2646,-0.2656,-0.2618,-0.2539,-0.2768,-0.2767,-0.2767,0,-0.2255,-0.227,-0.2338,-0.2349,-0.2378,-0.2418,-0.2447,-0.2547,-0.2586,-0.2711,-0.2726,-0.2794,-0.2819,-0.2834,-0.2814,-0.2801,-0.2747,-0.2692,-0.265,-0.2645,-0.2648,-0.2613,-0.2546,-0.2571,-0.2569,-0.2567,-0.2566,0,-0.2186,-0.2207,-0.2234,-0.2254,-0.2281,-0.2312,-0.2366,-0.2395,-0.252,-0.2585,-0.2664,-0.2708,-0.2771,-0.275,-0.2747,-0.2703,-0.2624,-0.2657,-0.2665,-0.2512,-0.2461,-0.2379,-0.2564,-0.2551,-0.2553,-0.2554,-0.2554,-0.2555,-0.2106,-0.2097,-0.2125,-0.2131,-0.2162,-0.2176,-0.2167,-0.226,-0.2315,-0.2413,-0.2538,-0.2632,-0.2685,-0.269,-0.264,-0.2552,-0.2547,-0.2472,-0.2491,-0.2463,-0.2359,-0.2521,-0.2485,-0.2486,-0.2486,-0.2487,-0.2488,0,-0.1993,-0.1996,-0.1999,-0.2003,-0.1985,-0.2043,-0.2084,-0.207,-0.2101,-0.2287,-0.2369,-0.258,-0.2547,-0.2583,-0.2538,-0.2429,-0.2317,-0.2346,-0.2281,-0.2223,-0.2382,-0.2344,-0.2259,-0.2259,-0.2259,-0.2259,-0.2259,-0.2259,-0.1934,-0.1892,-0.1893,-0.1813,-0.1816,-0.1752,-0.1746,-0.1764,-0.186,-0.2038,-0.2264,-0.2475,-0.2569,-0.2674,-0.253,-0.2387,-0.2272,-0.2189,-0.2184,-0.2325,-0.2339,-0.2351,-0.2317,-0.2228,-0.2228,-0.1938,-0.1937,-0.1935]},{"header":{"parameterUnit":"m.s-1","parameterCategory":2,"la1":30.2991,"la2":30.254,"lo1":-89.0895,"lo2":-89.0444,"dy":0.0017,"dx":0.0017,"nx":28,"ny":28,"refTime":"2024-12-04T09:00:00:Z","depth":"0","parameterNumber":3,"parameterNumberName":"V-component_of_CURRENTS"},"data":[0,0,0,0,0,0,0,0,0,0,0,0,0,0,0,0,0,0,0,0,0,0,0,0,0,0,0,0,0,0,0,0,0,0,0,0,0,0,0,0,0,0,0,0,0,0,0,0,0,0,0,0,0,0,0,0,0,0,-0.0392,-0.0391,0,-0.0314,-0.0313,-0.0312,-0.0257,-0.0257,-0.0257,-0.0256,-0.016,-0.0158,-0.0155,0,0,0,0,0,0,0,0,0,0,0,0,0,-0.0436,-0.0436,-0.0392,-0.0391,-0.039,-0.0314,-0.0313,-0.0311,-0.0257,-0.0257,-0.0256,-0.0256,-0.0161,-0.0158,-0.0155,0,0,0,0,0,0,0,0,0,0,0,0,0,-0.0392,-0.0436,-0.0392,-0.0355,-0.035,-0.0314,-0.0313,-0.0311,-0.0257,-0.0257,-0.0256,-0.0256,-0.0161,-0.0158,-0.0155,-0.0143,0,0,-0.0144,-0.0143,0,0,0,0,0,0,0,0,-0.0395,-0.0391,-0.0361,-0.0357,-0.0352,-0.0296,-0.0293,-0.0254,-0.0257,-0.0292,-0.0256,-0.0256,-0.0205,-0.0198,-0.0183,-0.0139,-0.0135,-0.0144,-0.0142,-0.0141,-0.014,0,0,0,0,0,0,0,-0.0398,-0.0393,-0.036,-0.036,-0.0355,-0.0322,-0.0316,-0.0285,-0.0251,-0.0289,-0.0285,-0.0278,-0.0202,-0.0186,-0.018,-0.0133,-0.0144,-0.0141,-0.0139,-0.0138,-0.007,-0.007,0,0,0,0,0,0,-0.0413,-0.0397,-0.0362,-0.0357,-0.0374,-0.0322,-0.0315,-0.0313,-0.0251,-0.0242,-0.0278,-0.0276,-0.0192,-0.0184,-0.0176,-0.016,-0.0141,-0.0137,-0.0135,-0.007,-0.007,-0.007,0,0,0,0,0,0,-0.0415,-0.0411,-0.0365,-0.0376,-0.0368,-0.0322,-0.0321,-0.0312,-0.0296,-0.0244,-0.0234,-0.0271,-0.0191,-0.0181,-0.0151,-0.0156,-0.0136,-0.0133,-0.0069,-0.007,-0.007,-0.0127,0,0,0,0,0,0,-0.0417,-0.0413,-0.0417,-0.0377,-0.0368,-0.0351,-0.0321,-0.0311,-0.0293,-0.0289,-0.0234,-0.0225,-0.019,-0.0157,-0.0148,-0.0151,-0.013,-0.0069,-0.0069,-0.007,-0.0125,-0.0129,-0.0133,0,0,0,0,0,-0.0418,-0.0433,-0.0418,-0.0414,-0.0376,-0.0352,-0.0344,-0.0308,-0.0294,-0.0291,-0.0253,-0.0227,-0.0153,-0.0154,-0.0144,-0.0146,-0.0069,-0.0069,-0.007,-0.0123,-0.0129,-0.0133,0,0,0,0,0,0,-0.0454,-0.0428,-0.041,-0.0416,-0.0387,-0.0343,-0.034,-0.0314,-0.0282,-0.0278,-0.0228,-0.0216,-0.0192,-0.0162,-0.0165,-0.0128,-0.0107,-0.0106,-0.0151,-0.0156,-0.016,-0.0171,-0.0127,0,0,0,0,0,-0.0465,-0.0468,-0.0432,-0.0435,-0.0426,-0.0383,-0.0369,-0.0345,-0.0311,-0.0296,-0.0257,-0.0218,-0.0186,-0.0167,-0.0134,-0.0114,-0.0082,-0.0109,-0.0114,-0.0117,-0.0119,-0.0078,-0.0079,-0.0072,-0.0072,-0.0072,0,0,-0.0479,-0.0465,-0.0466,-0.0443,-0.0419,-0.0412,-0.0373,-0.0359,-0.0349,-0.0292,-0.0269,-0.0232,-0.0184,-0.0161,-0.0148,-0.0137,-0.0102,-0.0118,-0.0122,-0.0122,-0.0078,-0.0079,-0.008,-0.0072,-0.0072,-0.0072,0,0,-0.0515,-0.0497,-0.0513,-0.0494,-0.0467,-0.0438,-0.0438,-0.0396,-0.0373,-0.0348,-0.0305,-0.0271,-0.0222,-0.0186,-0.0163,-0.0171,-0.0127,-0.0163,-0.0189,-0.015,-0.015,-0.0149,-0.0111,-0.0107,-0.0163,-0.0163,-0.0163,0,-0.0532,-0.0545,-0.0512,-0.0521,-0.051,-0.0455,-0.0465,-0.0434,-0.0386,-0.0369,-0.035,-0.0272,-0.0233,-0.0198,-0.02,-0.018,-0.0151,-0.0176,-0.0155,-0.0154,-0.0153,-0.0113,-0.0108,-0.0166,-0.0166,-0.0166,-0.0165,0,-0.0579,-0.0584,-0.0591,-0.0582,-0.0566,-0.0565,-0.0519,-0.0498,-0.0462,-0.0426,-0.0384,-0.0325,-0.0278,-0.026,-0.0231,-0.0204,-0.0185,-0.0167,-0.0145,-0.0157,-0.0114,-0.0108,-0.017,-0.0169,-0.0168,-0.0168,0,0,-0.063,-0.0627,-0.0629,-0.0634,-0.0599,-0.0592,-0.0573,-0.054,-0.0528,-0.047,-0.0449,-0.0385,-0.0345,-0.0316,-0.027,-0.0233,-0.0199,-0.0202,-0.0199,-0.0168,-0.011,-0.0067,-0.0055,-0.0179,-0.0178,-0.0177,-0.0085,0,-0.0675,-0.0713,-0.069,-0.0709,-0.0721,-0.0665,-0.0653,-0.0613,-0.0565,-0.0529,-0.0455,-0.0417,-0.0368,-0.0346,-0.0301,-0.0221,-0.0184,-0.0225,-0.0099,-0.0095,-0.0059,-0.0047,-0.0036,0.005,-0.0078,-0.0077,-0.0076,0,-0.0731,-0.0746,-0.0783,-0.0776,-0.0775,-0.0772,-0.0738,-0.0719,-0.0649,-0.0612,-0.0551,-0.0488,-0.0413,-0.0379,-0.0244,-0.0273,-0.0202,-0.014,-0.0135,-0.007,-0.004,0.0044,0.0068,0.0246,-0.0065,-0.0066,-0.0067,0,-0.0795,-0.0809,-0.0843,-0.0841,-0.0824,-0.0823,-0.0804,-0.0747,-0.0734,-0.0661,-0.064,-0.0537,-0.0487,-0.0378,-0.0241,-0.0243,-0.0097,-0.0082,0.0024,0.0027,0.0076,0.0083,0.0284,-0.0002,-0.0002,-0.0002,-0.0003,0,-0.086,-0.0883,-0.0877,-0.0897,-0.0925,-0.0886,-0.0896,-0.0859,-0.081,-0.0799,-0.069,-0.0652,-0.0487,-0.0377,-0.0256,-0.0087,-0.0103,0.0025,0.0057,0.0056,0.006,0.0248,0.0333,0.0001,0.0,-0.0,-0.0001,0,-0.093,-0.0929,-0.0964,-0.096,-0.0961,-0.098,-0.0965,-0.0969,-0.0909,-0.0889,-0.087,-0.0734,-0.0581,-0.041,-0.0226,-0.0107,0.0158,0.0102,0.0092,0.0121,0.0391,0.0471,0.0704,0.0787,0.0243,0.0245,0.0246,0,-0.0973,-0.1001,-0.1021,-0.1046,-0.1048,-0.1064,-0.1077,-0.1028,-0.1029,-0.0937,-0.0935,-0.0782,-0.0674,-0.037,-0.0132,0.0102,0.0231,0.0249,0.025,0.0421,0.0534,0.059,0.0646,0.0292,0.0293,0.0295,0.0296,0,-0.1044,-0.1048,-0.1075,-0.113,-0.1156,-0.1183,-0.1192,-0.1209,-0.1149,-0.1118,-0.104,-0.0942,-0.0628,-0.0343,-0.0023,0.012,0.0393,0.0284,0.0468,0.0601,0.0669,0.0758,0.0216,0.0308,0.0307,0.0306,0.0305,0.0305,-0.1087,-0.1123,-0.1158,-0.1205,-0.1245,-0.1288,-0.1316,-0.1322,-0.1322,-0.1275,-0.1148,-0.099,-0.0523,-0.0059,0.012,0.0534,0.052,0.0655,0.074,0.0783,0.0866,0.0354,0.0477,0.0477,0.0477,0.0476,0.0476,0,-0.1135,-0.1172,-0.1229,-0.1285,-0.1344,-0.1339,-0.1383,-0.1404,-0.1421,-0.1352,-0.1264,-0.0786,-0.0322,0.0128,0.0736,0.0978,0.1015,0.1099,0.1186,0.1221,0.0776,0.0781,0.0968,0.0968,0.0968,0.0968,0.0968,0.0967,-0.116,-0.1226,-0.1251,-0.1351,-0.1395,-0.1459,-0.1486,-0.1509,-0.1477,-0.1347,-0.1124,-0.0953,-0.0206,0.0845,0.1421,0.1457,0.1654,0.164,0.1757,0.1459,0.1424,0.139,0.1417,0.1734,0.1735,0.2155,0.2159,0.2162]}],[{"header":{"parameterUnit":"m.s-1","parameterCategory":2,"la1":30.2991,"la2":30.254,"lo1":-89.0895,"lo2":-89.0444,"dy":0.0017,"dx":0.0017,"nx":28,"ny":28,"refTime":"2024-12-04T09:00:00:Z","depth":"2","parameterNumber":2,"parameterNumberName":"U-component_of_CURRENTS"},"data":[0,0,0,0,0,0,0,0,0,0,0,0,0,0,0,0,0,0,0,0,0,0,0,0,0,0,0,0,0,0,0,0,0,0,0,0,0,0,0,0,0,0,0,0,0,0,0,0,0,0,0,0,0,0,0,0,0,0,-0.2347,-0.2347,0,-0.2379,-0.2379,-0.238,-0.2349,-0.2348,-0.2348,-0.2347,-0.2326,-0.2327,-0.2327,0,0,0,0,0,0,0,0,0,0,0,0,0,-0.2264,-0.2265,-0.2347,-0.2347,-0.2348,-0.2379,-0.2379,-0.238,-0.235,-0.2348,-0.2347,-0.2346,-0.2326,-0.2327,-0.2327,0,0,0,0,0,0,0,0,0,0,0,0,0,-0.2295,-0.2265,-0.2347,-0.2339,-0.2339,-0.2379,-0.2379,-0.238,-0.235,-0.2348,-0.2347,-0.2346,-0.2326,-0.2326,-0.2327,-0.2358,0,0,-0.2328,-0.2329,0,0,0,0,0,0,0,0,-0.2294,-0.2298,-0.2339,-0.234,-0.234,-0.2362,-0.2343,-0.2371,-0.235,-0.2342,-0.2347,-0.2345,-0.2336,-0.2336,-0.2341,-0.2357,-0.2356,-0.2329,-0.2329,-0.2329,-0.2329,0,0,0,0,0,0,0,-0.2291,-0.2297,-0.2356,-0.234,-0.2341,-0.2336,-0.2339,-0.2348,-0.2343,-0.2343,-0.2342,-0.2351,-0.2335,-0.2341,-0.2341,-0.2356,-0.2329,-0.2329,-0.2329,-0.2329,-0.2384,-0.2385,0,0,0,0,0,0,-0.2295,-0.2295,-0.2356,-0.2358,-0.2316,-0.2339,-0.2342,-0.2353,-0.2344,-0.2343,-0.2352,-0.2349,-0.2341,-0.234,-0.234,-0.2369,-0.2329,-0.2329,-0.233,-0.2383,-0.2385,-0.2386,0,0,0,0,0,0,-0.2293,-0.2301,-0.2354,-0.2329,-0.2336,-0.2342,-0.2355,-0.2355,-0.2356,-0.2352,-0.2349,-0.2353,-0.234,-0.2339,-0.2349,-0.2368,-0.233,-0.233,-0.2382,-0.2384,-0.2385,-0.2432,0,0,0,0,0,0,-0.2291,-0.23,-0.2304,-0.233,-0.2338,-0.2381,-0.2357,-0.2357,-0.2365,-0.2362,-0.2352,-0.2349,-0.2339,-0.2348,-0.2349,-0.2368,-0.2331,-0.238,-0.2383,-0.2385,-0.2429,-0.2435,-0.244,0,0,0,0,0,-0.2288,-0.2306,-0.2304,-0.2311,-0.2345,-0.2383,-0.2386,-0.2383,-0.2367,-0.2376,-0.2367,-0.2349,-0.2362,-0.235,-0.235,-0.237,-0.2379,-0.2382,-0.2384,-0.2426,-0.2434,-0.244,0,0,0,0,0,0,-0.2271,-0.2306,-0.2303,-0.233,-0.2354,-0.2379,-0.2388,-0.2387,-0.2389,-0.2381,-0.2366,-0.2363,-0.2379,-0.2372,-0.2358,-0.2393,-0.2368,-0.2371,-0.2399,-0.2406,-0.2412,-0.2413,-0.2331,0,0,0,0,0,-0.2271,-0.2289,-0.2324,-0.2341,-0.2357,-0.2371,-0.2383,-0.2387,-0.2397,-0.2396,-0.239,-0.2387,-0.2395,-0.2396,-0.2401,-0.2422,-0.2415,-0.2435,-0.2441,-0.2446,-0.2448,-0.2451,-0.2457,-0.2394,-0.2394,-0.2394,0,0,-0.2268,-0.2289,-0.2298,-0.2338,-0.2353,-0.2388,-0.2374,-0.24,-0.2422,-0.2395,-0.2412,-0.2407,-0.2405,-0.2427,-0.2433,-0.242,-0.2464,-0.2449,-0.2453,-0.2453,-0.2455,-0.2461,-0.2466,-0.2396,-0.2396,-0.2395,0,0,-0.2282,-0.2293,-0.2318,-0.2345,-0.238,-0.2396,-0.2405,-0.2435,-0.2438,-0.2463,-0.2447,-0.2456,-0.2466,-0.2471,-0.2474,-0.2517,-0.2494,-0.2516,-0.2545,-0.2548,-0.2553,-0.2557,-0.257,-0.2575,-0.2518,-0.2518,-0.2518,0,-0.2275,-0.2311,-0.233,-0.2367,-0.2388,-0.2402,-0.2437,-0.2455,-0.2479,-0.2487,-0.2472,-0.2494,-0.2491,-0.2519,-0.2531,-0.253,-0.2526,-0.2518,-0.2555,-0.2559,-0.2562,-0.2574,-0.2579,-0.252,-0.252,-0.252,-0.252,0,-0.2315,-0.2342,-0.2362,-0.2408,-0.2436,-0.2468,-0.2502,-0.2521,-0.2524,-0.2537,-0.256,-0.256,-0.2568,-0.2575,-0.2565,-0.2593,-0.2581,-0.2561,-0.2535,-0.2571,-0.2582,-0.2586,-0.2524,-0.2523,-0.2522,-0.2522,0,0,-0.2296,-0.2374,-0.2376,-0.24,-0.2458,-0.2483,-0.2528,-0.2568,-0.2588,-0.2606,-0.2629,-0.2647,-0.2635,-0.2638,-0.2629,-0.2636,-0.2663,-0.2609,-0.2607,-0.2618,-0.2675,-0.2641,-0.2642,-0.2642,-0.2642,-0.2643,-0.2677,0,-0.2314,-0.238,-0.2418,-0.2469,-0.2502,-0.2536,-0.2575,-0.2611,-0.2632,-0.266,-0.2666,-0.2684,-0.2663,-0.2664,-0.267,-0.2664,-0.2673,-0.2656,-0.2641,-0.2641,-0.2604,-0.2646,-0.2378,-0.2383,-0.2681,-0.2681,-0.2682,0,-0.2332,-0.2373,-0.243,-0.2493,-0.2511,-0.2543,-0.2594,-0.2633,-0.2682,-0.2698,-0.2719,-0.2721,-0.2744,-0.2714,-0.2725,-0.2711,-0.2697,-0.2691,-0.2691,-0.2644,-0.2615,-0.2393,-0.2379,-0.2688,-0.2688,-0.2687,-0.2687,0,-0.2293,-0.2373,-0.2411,-0.2436,-0.2518,-0.254,-0.2577,-0.2635,-0.2663,-0.2717,-0.2737,-0.2763,-0.277,-0.2765,-0.275,-0.2736,-0.2756,-0.2735,-0.2698,-0.2696,-0.2458,-0.2434,-0.2741,-0.2741,-0.2741,-0.2741,-0.2741,0,-0.2289,-0.2316,-0.2393,-0.2414,-0.2445,-0.2516,-0.2551,-0.2595,-0.2662,-0.2695,-0.2741,-0.2765,-0.2778,-0.2789,-0.2772,-0.2751,-0.2773,-0.2714,-0.2704,-0.247,-0.2447,-0.2697,-0.2691,-0.2742,-0.2742,-0.2742,-0.2742,0,-0.2234,-0.2295,-0.2332,-0.2409,-0.2427,-0.2443,-0.2518,-0.2548,-0.2625,-0.2671,-0.2688,-0.2765,-0.279,-0.2802,-0.2805,-0.2772,-0.2762,-0.2744,-0.2481,-0.244,-0.2697,-0.2694,-0.2719,-0.2718,-0.2717,-0.2717,-0.2716,0,-0.221,-0.2226,-0.2292,-0.2303,-0.2333,-0.2373,-0.2402,-0.25,-0.2538,-0.2661,-0.2674,-0.2742,-0.2761,-0.2776,-0.2714,-0.269,-0.2755,-0.2449,-0.2382,-0.2708,-0.2696,-0.2694,-0.2691,-0.2085,-0.208,-0.2075,-0.2071,0,-0.2143,-0.2164,-0.2191,-0.2212,-0.2239,-0.2268,-0.2321,-0.235,-0.2472,-0.253,-0.2607,-0.2644,-0.2667,-0.2526,-0.2507,-0.245,-0.2436,-0.2359,-0.2741,-0.215,-0.2118,-0.2104,-0.212,-0.203,-0.2034,-0.2037,-0.204,-0.2041,-0.2065,-0.2057,-0.2085,-0.2092,-0.2122,-0.2135,-0.2125,-0.2199,-0.2246,-0.2293,-0.2429,-0.2406,-0.2399,-0.2248,-0.2151,-0.2063,-0.2248,-0.2118,-0.2129,-0.2145,-0.2083,-0.2053,-0.1942,-0.1945,-0.1948,-0.1951,-0.1953,0,-0.1949,-0.1957,-0.1961,-0.1966,-0.1942,-0.2005,-0.2043,-0.2,-0.2002,-0.2081,-0.2113,-0.1919,-0.1835,-0.1846,-0.1646,-0.1638,-0.1571,-0.1563,-0.1449,-0.1491,-0.1528,-0.1431,-0.1119,-0.1117,-0.1115,-0.1113,0,0,-0.189,-0.1846,-0.1847,-0.1766,-0.1774,-0.1699,-0.1692,-0.1655,-0.1658,-0.1615,-0.1605,-0.1736,-0.1794,-0.1459,-0.1378,-0.122,-0.134,-0.1149,-0.1812,-0.1717,-0.1752,-0.1837,-0.1735,0,0,0,0,0]},{"header":{"parameterUnit":"m.s-1","parameterCategory":2,"la1":30.2991,"la2":30.254,"lo1":-89.0895,"lo2":-89.0444,"dy":0.0017,"dx":0.0017,"nx":28,"ny":28,"refTime":"2024-12-04T09:00:00:Z","depth":"2","parameterNumber":3,"parameterNumberName":"V-component_of_CURRENTS"},"data":[0,0,0,0,0,0,0,0,0,0,0,0,0,0,0,0,0,0,0,0,0,0,0,0,0,0,0,0,0,0,0,0,0,0,0,0,0,0,0,0,0,0,0,0,0,0,0,0,0,0,0,0,0,0,0,0,0,0,-0.0317,-0.0316,0,-0.0241,-0.024,-0.0239,-0.0186,-0.0186,-0.0186,-0.0186,-0.0091,-0.0089,-0.0087,0,0,0,0,0,0,0,0,0,0,0,0,0,-0.0361,-0.0361,-0.0317,-0.0316,-0.0315,-0.0241,-0.0239,-0.0238,-0.0186,-0.0186,-0.0186,-0.0185,-0.0092,-0.0089,-0.0087,0,0,0,0,0,0,0,0,0,0,0,0,0,-0.0318,-0.0361,-0.0317,-0.0281,-0.0277,-0.0241,-0.0239,-0.0238,-0.0186,-0.0186,-0.0186,-0.0185,-0.0093,-0.009,-0.0086,-0.0074,0,0,-0.0076,-0.0075,0,0,0,0,0,0,0,0,-0.0321,-0.0317,-0.0288,-0.0284,-0.0279,-0.0224,-0.022,-0.0183,-0.0187,-0.022,-0.0186,-0.0185,-0.0135,-0.0128,-0.0113,-0.0069,-0.0065,-0.0076,-0.0074,-0.0072,-0.0071,0,0,0,0,0,0,0,-0.0324,-0.0319,-0.0286,-0.0287,-0.0282,-0.025,-0.0243,-0.0213,-0.0179,-0.0217,-0.0213,-0.0207,-0.0132,-0.0117,-0.0111,-0.0064,-0.0076,-0.0073,-0.0071,-0.0069,-0.0002,-0.0002,0,0,0,0,0,0,-0.0339,-0.0323,-0.0288,-0.0283,-0.0301,-0.0249,-0.0242,-0.0241,-0.018,-0.0171,-0.0207,-0.0204,-0.0123,-0.0115,-0.0107,-0.0092,-0.0072,-0.0069,-0.0067,-0.0001,-0.0002,-0.0002,0,0,0,0,0,0,-0.0341,-0.0337,-0.0291,-0.0302,-0.0294,-0.025,-0.0248,-0.024,-0.0225,-0.0173,-0.0163,-0.0201,-0.0122,-0.0112,-0.0083,-0.0088,-0.0067,-0.0064,-0.0001,-0.0002,-0.0002,-0.0059,0,0,0,0,0,0,-0.0342,-0.0338,-0.0343,-0.0303,-0.0294,-0.0277,-0.0248,-0.0239,-0.0222,-0.0218,-0.0164,-0.0155,-0.0121,-0.0088,-0.0079,-0.0083,-0.0062,-0.0001,-0.0001,-0.0002,-0.0057,-0.0061,-0.0065,0,0,0,0,0,-0.0344,-0.0358,-0.0344,-0.0339,-0.0302,-0.0278,-0.027,-0.0236,-0.0222,-0.022,-0.0183,-0.0157,-0.0084,-0.0085,-0.0075,-0.0078,-0.0001,-0.0001,-0.0002,-0.0055,-0.006,-0.0065,0,0,0,0,0,0,-0.038,-0.0353,-0.0337,-0.0341,-0.0314,-0.027,-0.0266,-0.0242,-0.0211,-0.0208,-0.0158,-0.0146,-0.0122,-0.0093,-0.0096,-0.006,-0.0039,-0.0038,-0.0083,-0.0088,-0.0092,-0.0102,-0.0059,0,0,0,0,0,-0.0391,-0.0393,-0.0358,-0.0361,-0.0351,-0.0309,-0.0296,-0.0273,-0.024,-0.0225,-0.0187,-0.0148,-0.0116,-0.0098,-0.0066,-0.0046,-0.0013,-0.0041,-0.0045,-0.0049,-0.0051,-0.0009,-0.001,-0.0004,-0.0004,-0.0004,0,0,-0.0404,-0.0391,-0.0391,-0.0368,-0.0345,-0.0338,-0.03,-0.0287,-0.0277,-0.0221,-0.0199,-0.0162,-0.0115,-0.0092,-0.0079,-0.0068,-0.0034,-0.0049,-0.0053,-0.0053,-0.001,-0.001,-0.0011,-0.0004,-0.0004,-0.0004,0,0,-0.0439,-0.0422,-0.0437,-0.0419,-0.0393,-0.0364,-0.0364,-0.0323,-0.0301,-0.0276,-0.0234,-0.0201,-0.0152,-0.0117,-0.0094,-0.0101,-0.0058,-0.0094,-0.012,-0.008,-0.0081,-0.008,-0.0042,-0.0038,-0.0094,-0.0095,-0.0095,0,-0.0457,-0.0469,-0.0437,-0.0445,-0.0434,-0.0381,-0.039,-0.036,-0.0313,-0.0296,-0.0279,-0.0201,-0.0163,-0.0128,-0.013,-0.0111,-0.0082,-0.0107,-0.0086,-0.0085,-0.0084,-0.0045,-0.004,-0.0097,-0.0097,-0.0097,-0.0096,0,-0.0502,-0.0507,-0.0515,-0.0505,-0.0489,-0.0488,-0.0443,-0.0422,-0.0388,-0.0353,-0.0311,-0.0253,-0.0207,-0.019,-0.0161,-0.0135,-0.0115,-0.0098,-0.0076,-0.0088,-0.0046,-0.004,-0.0101,-0.01,-0.0099,-0.0099,0,0,-0.0554,-0.0549,-0.0551,-0.0556,-0.0521,-0.0515,-0.0495,-0.0462,-0.045,-0.0395,-0.0373,-0.0311,-0.0273,-0.0244,-0.0199,-0.0162,-0.0129,-0.0132,-0.0129,-0.0099,-0.0041,-0.0002,0.001,-0.0109,-0.0108,-0.0107,-0.0017,0,-0.0598,-0.0635,-0.0611,-0.063,-0.0641,-0.0586,-0.0573,-0.0533,-0.0487,-0.0451,-0.0379,-0.0342,-0.0294,-0.0274,-0.0229,-0.015,-0.0114,-0.0155,-0.003,-0.0026,0.0007,0.0018,0.0002,0.0083,-0.001,-0.0009,-0.0008,0,-0.0654,-0.0667,-0.0704,-0.0695,-0.0694,-0.0692,-0.0658,-0.0638,-0.0568,-0.0533,-0.0473,-0.0411,-0.0338,-0.0305,-0.0173,-0.0201,-0.0132,-0.0071,-0.0066,-0.0003,0.0026,0.0082,0.0099,0.0003,0.0002,0.0002,0.0001,0,-0.0719,-0.073,-0.0764,-0.0761,-0.0743,-0.0742,-0.0723,-0.0667,-0.0653,-0.0582,-0.0561,-0.0459,-0.0411,-0.0304,-0.017,-0.0172,-0.0028,-0.0013,0.0089,0.0092,0.0117,0.0121,0.0067,0.0066,0.0066,0.0066,0.0066,0,-0.0782,-0.0805,-0.0798,-0.0817,-0.0845,-0.0805,-0.0816,-0.0779,-0.073,-0.0718,-0.0611,-0.0573,-0.0411,-0.0303,-0.0184,-0.0019,-0.0034,0.009,0.0122,0.0097,0.0098,0.0058,0.0056,0.0069,0.0069,0.0068,0.0067,0,-0.0853,-0.0851,-0.0886,-0.0881,-0.0881,-0.0901,-0.0885,-0.0888,-0.0829,-0.0809,-0.079,-0.0656,-0.0505,-0.0337,-0.0156,-0.0039,0.0112,0.0165,0.0126,0.0152,0.0208,0.0202,0.0297,0.0299,0.0301,0.0303,0.0304,0,-0.0896,-0.0924,-0.0943,-0.0968,-0.097,-0.0986,-0.0998,-0.0949,-0.0949,-0.0857,-0.0855,-0.0705,-0.0596,-0.0298,-0.0066,0.0163,0.015,0.0276,0.0274,0.0212,0.0233,0.0224,0.0215,0.0283,0.0284,0.0285,0.0285,0,-0.0968,-0.0972,-0.0999,-0.1053,-0.1079,-0.1104,-0.1113,-0.1129,-0.1068,-0.1034,-0.0956,-0.0858,-0.0552,-0.0284,0.0028,0.0161,0.0246,0.0303,0.0255,0.0226,0.0206,0.0224,0.0215,0.0293,0.0292,0.0292,0.0291,0.0291,-0.1011,-0.1047,-0.1082,-0.1129,-0.1168,-0.1209,-0.1236,-0.1224,-0.1219,-0.1138,-0.1036,-0.0849,-0.0568,-0.0114,0.0113,0.0338,0.0325,0.0388,0.0382,0.0376,0.0357,0.0342,0.045,0.045,0.0451,0.0451,0.0451,0,-0.1053,-0.1098,-0.1154,-0.1209,-0.1257,-0.1262,-0.1303,-0.1287,-0.1278,-0.1174,-0.1063,-0.0733,-0.0415,-0.0124,0.0241,0.0449,0.043,0.048,0.0415,0.0406,0.0399,0.0378,0.0479,0.048,0.048,0.0481,0,0,-0.1076,-0.1138,-0.1163,-0.1256,-0.1306,-0.1348,-0.1374,-0.1331,-0.1256,-0.1144,-0.0998,-0.0775,-0.0418,-0.0149,0.0118,0.0305,0.0294,0.0321,0.0278,0.016,0.015,0.0329,0.0286,0,0,0,0,0]}],[{"header":{"parameterUnit":"m.s-1","parameterCategory":2,"la1":30.2991,"la2":30.254,"lo1":-89.0895,"lo2":-89.0444,"dy":0.0017,"dx":0.0017,"nx":28,"ny":28,"refTime":"2024-12-04T09:00:00:Z","depth":"4","parameterNumber":2,"parameterNumberName":"U-component_of_CURRENTS"},"data":[0,0,0,0,0,0,0,0,0,0,0,0,0,0,0,0,0,0,0,0,0,0,0,0,0,0,0,0,0,0,0,0,0,0,0,0,0,0,0,0,0,0,0,0,0,0,0,0,0,0,0,0,0,0,0,0,0,0,-0.1585,-0.1586,0,-0.1653,-0.1654,-0.1655,-0.169,-0.169,-0.1691,-0.1691,-0.1756,-0.1757,-0.1759,0,0,0,0,0,0,0,0,0,0,0,0,0,-0.1489,-0.149,-0.1585,-0.1586,-0.1587,-0.1653,-0.1654,-0.1655,-0.169,-0.169,-0.1691,-0.1691,-0.1755,-0.1757,-0.1759,0,0,0,0,0,0,0,0,0,0,0,0,0,-0.154,-0.1491,-0.1584,-0.1614,-0.1617,-0.1653,-0.1654,-0.1655,-0.169,-0.169,-0.1691,-0.1691,-0.1755,-0.1757,-0.1759,-0.1768,0,0,-0.1766,-0.1767,0,0,0,0,0,0,0,0,-0.1537,-0.1543,-0.1608,-0.1612,-0.1616,-0.1665,-0.1644,-0.1693,-0.169,-0.1661,-0.1691,-0.1691,-0.1726,-0.1731,-0.1741,-0.1771,-0.1774,-0.1767,-0.1768,-0.1769,-0.177,0,0,0,0,0,0,0,-0.1533,-0.154,-0.161,-0.1609,-0.1614,-0.1625,-0.1632,-0.1654,-0.1689,-0.1663,-0.1666,-0.1677,-0.1728,-0.1738,-0.1742,-0.1775,-0.1767,-0.1769,-0.177,-0.1771,-0.1883,-0.1885,0,0,0,0,0,0,-0.1528,-0.1537,-0.1608,-0.1612,-0.1578,-0.1626,-0.1635,-0.1647,-0.1689,-0.1697,-0.1676,-0.1678,-0.1734,-0.174,-0.1745,-0.1824,-0.1769,-0.1771,-0.1772,-0.1882,-0.1884,-0.1885,0,0,0,0,0,0,-0.1525,-0.1533,-0.1605,-0.1577,-0.1587,-0.1628,-0.1642,-0.1649,-0.1685,-0.17,-0.1706,-0.1708,-0.1735,-0.1742,-0.179,-0.1824,-0.1772,-0.1774,-0.188,-0.1882,-0.1884,-0.1939,0,0,0,0,0,0,-0.1522,-0.1532,-0.1552,-0.1577,-0.1589,-0.1645,-0.1642,-0.165,-0.169,-0.1693,-0.1729,-0.1734,-0.1735,-0.1787,-0.1792,-0.1826,-0.1776,-0.1878,-0.1881,-0.1884,-0.1935,-0.1943,-0.195,0,0,0,0,0,-0.1519,-0.1542,-0.1552,-0.1561,-0.161,-0.1647,-0.1654,-0.1682,-0.1691,-0.1714,-0.174,-0.1734,-0.1809,-0.179,-0.1796,-0.1832,-0.1876,-0.188,-0.1883,-0.1932,-0.1942,-0.195,0,0,0,0,0,0,-0.1513,-0.1549,-0.156,-0.1595,-0.1627,-0.1654,-0.1682,-0.1698,-0.1737,-0.1747,-0.1756,-0.1763,-0.1817,-0.1818,-0.1797,-0.1873,-0.1841,-0.1846,-0.1876,-0.1885,-0.1892,-0.1887,-0.1778,0,0,0,0,0,-0.152,-0.1547,-0.158,-0.161,-0.1628,-0.1659,-0.1682,-0.1703,-0.1734,-0.1753,-0.1778,-0.1805,-0.1833,-0.1855,-0.1876,-0.1921,-0.1909,-0.1948,-0.1955,-0.1961,-0.1962,-0.1969,-0.1977,-0.1897,-0.1897,-0.1897,0,0,-0.1527,-0.155,-0.1567,-0.1611,-0.1638,-0.1674,-0.1675,-0.172,-0.1756,-0.1753,-0.1817,-0.1834,-0.185,-0.1899,-0.1923,-0.1908,-0.1981,-0.1966,-0.1971,-0.1968,-0.1974,-0.1981,-0.1988,-0.1899,-0.1899,-0.1899,0,0,-0.1548,-0.1576,-0.1605,-0.1635,-0.1683,-0.1703,-0.1722,-0.1767,-0.1796,-0.1853,-0.1859,-0.1898,-0.1946,-0.1962,-0.1975,-0.2036,-0.2017,-0.2048,-0.2084,-0.2092,-0.2099,-0.2104,-0.2107,-0.2112,-0.2053,-0.2054,-0.2054,0,-0.1557,-0.1594,-0.162,-0.1656,-0.1686,-0.1719,-0.1758,-0.1793,-0.1851,-0.1877,-0.1884,-0.1957,-0.1975,-0.2022,-0.2047,-0.2053,-0.2049,-0.2049,-0.21,-0.2105,-0.211,-0.2111,-0.2116,-0.2057,-0.2056,-0.2056,-0.2056,0,-0.1591,-0.1632,-0.1654,-0.1707,-0.1743,-0.1784,-0.1831,-0.1876,-0.1914,-0.1944,-0.2009,-0.2034,-0.2072,-0.209,-0.2091,-0.2137,-0.2121,-0.2105,-0.2074,-0.2121,-0.212,-0.2124,-0.2061,-0.206,-0.2059,-0.2058,0,0,-0.1575,-0.1661,-0.167,-0.1704,-0.1775,-0.1804,-0.1872,-0.1931,-0.1974,-0.2031,-0.2081,-0.2136,-0.2145,-0.2159,-0.2167,-0.2182,-0.2217,-0.2163,-0.2162,-0.2159,-0.2233,-0.2086,-0.2076,-0.2208,-0.2209,-0.221,-0.2222,0,-0.1594,-0.1662,-0.1704,-0.1775,-0.1812,-0.1867,-0.1922,-0.1982,-0.2033,-0.2091,-0.2125,-0.2176,-0.2172,-0.2196,-0.2212,-0.2217,-0.2229,-0.2215,-0.2194,-0.2194,-0.2051,-0.2076,-0.2213,-0.2225,-0.2225,-0.2226,-0.2227,0,-0.1602,-0.1649,-0.1721,-0.1805,-0.1828,-0.188,-0.1965,-0.2021,-0.2101,-0.2141,-0.2191,-0.2216,-0.2263,-0.2246,-0.2273,-0.2264,-0.2255,-0.2251,-0.2251,-0.2094,-0.2053,-0.2168,-0.2233,-0.2233,-0.2232,-0.2232,-0.2231,0,-0.1557,-0.1655,-0.1712,-0.1744,-0.1846,-0.1895,-0.1951,-0.2037,-0.2082,-0.2172,-0.2207,-0.2261,-0.229,-0.2296,-0.2293,-0.229,-0.2304,-0.2294,-0.2153,-0.2143,-0.2248,-0.2242,-0.2303,-0.2303,-0.2303,-0.2303,-0.2303,0,-0.1538,-0.1587,-0.1702,-0.1732,-0.1797,-0.1881,-0.1953,-0.2017,-0.2105,-0.2145,-0.2225,-0.2247,-0.2302,-0.2315,-0.2307,-0.2231,-0.2313,-0.2155,-0.2132,-0.2273,-0.227,-0.2251,-0.2245,-0.2303,-0.2303,-0.2303,-0.2303,0,-0.147,-0.1552,-0.162,-0.174,-0.1778,-0.1824,-0.1938,-0.1981,-0.208,-0.2134,-0.2163,-0.2246,-0.2257,-0.2287,-0.2297,-0.2225,-0.2188,-0.2141,-0.2293,-0.2279,-0.2024,-0.2021,-0.1985,-0.198,-0.1976,-0.1972,-0.1969,0,-0.1436,-0.1468,-0.1599,-0.1636,-0.1695,-0.1778,-0.1826,-0.1947,-0.1982,-0.2105,-0.2107,-0.217,-0.2204,-0.2096,-0.215,-0.2116,-0.2089,-0.2057,-0.2035,-0.2008,-0.199,-0.1994,-0.1996,-0.1962,-0.1961,-0.196,-0.1959,0,-0.1359,-0.1422,-0.1476,-0.1549,-0.1615,-0.1671,-0.1749,-0.1761,-0.1886,-0.2,-0.199,-0.199,-0.1996,-0.1994,-0.1976,-0.1954,-0.2071,-0.201,-0.2019,-0.1999,-0.1979,-0.1966,-0.1974,-0.1943,-0.1946,-0.1947,-0.1948,0,-0.1294,-0.131,-0.1387,-0.1436,-0.1512,-0.1529,-0.1593,-0.1628,-0.1678,-0.1816,-0.1808,-0.1881,-0.197,-0.1909,-0.1896,-0.1858,-0.1832,-0.1766,-0.1788,-0.1805,-0.1739,-0.1687,-0.1535,0,0,0,0,0,-0.1218,-0.1222,-0.1262,-0.1312,-0.1382,-0.142,-0.1519,-0.1587,-0.1712,-0.1654,-0.1724,-0.1723,-0.1705,-0.1746,-0.1668,-0.1819,-0.1842,-0.1721,-0.1779,-0.1859,-0.1876,-0.1814,0,0,0,0,0,0,-0.1167,-0.1202,-0.1216,-0.1188,-0.1197,-0.1255,-0.131,-0.1404,-0.1377,-0.1511,-0.1507,-0.161,-0.1616,-0.1719,-0.163,-0.1641,-0.164,-0.1777,-0.1772,-0.1849,-0.1865,-0.1879,-0.1821,0,0,0,0,0]},{"header":{"parameterUnit":"m.s-1","parameterCategory":2,"la1":30.2991,"la2":30.254,"lo1":-89.0895,"lo2":-89.0444,"dy":0.0017,"dx":0.0017,"nx":28,"ny":28,"refTime":"2024-12-04T09:00:00:Z","depth":"4","parameterNumber":3,"parameterNumberName":"V-component_of_CURRENTS"},"data":[0,0,0,0,0,0,0,0,0,0,0,0,0,0,0,0,0,0,0,0,0,0,0,0,0,0,0,0,0,0,0,0,0,0,0,0,0,0,0,0,0,0,0,0,0,0,0,0,0,0,0,0,0,0,0,0,0,0,-0.0064,-0.0064,0,-0.0021,-0.002,-0.0019,0.0013,0.0013,0.0014,0.0014,0.0078,0.008,0.0081,0,0,0,0,0,0,0,0,0,0,0,0,0,-0.0085,-0.0085,-0.0064,-0.0064,-0.0063,-0.0021,-0.002,-0.0019,0.0013,0.0013,0.0014,0.0014,0.0078,0.008,0.0082,0,0,0,0,0,0,0,0,0,0,0,0,0,-0.0061,-0.0085,-0.0064,-0.0043,-0.004,-0.0021,-0.002,-0.0019,0.0013,0.0013,0.0014,0.0014,0.0077,0.008,0.0082,0.009,0,0,0.0089,0.009,0,0,0,0,0,0,0,0,-0.0063,-0.006,-0.0046,-0.0044,-0.0042,-0.001,-0.0004,0.0018,0.0013,-0.0006,0.0014,0.0014,0.005,0.0055,0.0063,0.0093,0.0096,0.0089,0.009,0.0091,0.0092,0,0,0,0,0,0,0,-0.0064,-0.0062,-0.0046,-0.0046,-0.0043,-0.0023,-0.002,0.0001,0.0021,-0.0005,-0.0002,0.0001,0.0052,0.0061,0.0065,0.0097,0.0089,0.0091,0.0092,0.0093,0.0135,0.0135,0,0,0,0,0,0,-0.0074,-0.0064,-0.0047,-0.0045,-0.0053,-0.0024,-0.002,-0.0019,0.002,0.0026,0.0001,0.0002,0.0057,0.0062,0.0067,0.0072,0.0091,0.0094,0.0095,0.0135,0.0135,0.0135,0,0,0,0,0,0,-0.0075,-0.0073,-0.0049,-0.0054,-0.0049,-0.0024,-0.0024,-0.0019,-0.0012,0.0024,0.003,0.0002,0.0057,0.0064,0.0082,0.0075,0.0095,0.0097,0.0136,0.0135,0.0135,0.0086,0,0,0,0,0,0,-0.0075,-0.0074,-0.0079,-0.0055,-0.005,-0.0044,-0.0024,-0.0018,-0.001,-0.0008,0.0027,0.0034,0.0058,0.0078,0.0084,0.0079,0.0099,0.0136,0.0135,0.0135,0.0088,0.0084,0.008,0,0,0,0,0,-0.0076,-0.0087,-0.0079,-0.0077,-0.0057,-0.0045,-0.004,-0.002,-0.0011,-0.0012,0.0013,0.0033,0.0079,0.008,0.0087,0.0082,0.0136,0.0136,0.0135,0.0089,0.0085,0.008,0,0,0,0,0,0,-0.0097,-0.0084,-0.0075,-0.0081,-0.0066,-0.004,-0.004,-0.0025,-0.0007,-0.0005,0.003,0.0038,0.0051,0.0073,0.0072,0.0092,0.0111,0.0111,0.0074,0.0069,0.0066,0.006,0.01,0,0,0,0,0,-0.0105,-0.0111,-0.0091,-0.0095,-0.0091,-0.0067,-0.006,-0.0047,-0.0026,-0.0018,0.0008,0.0033,0.0054,0.0066,0.0088,0.0099,0.0127,0.01,0.0096,0.0093,0.0093,0.0128,0.0127,0.0133,0.0133,0.0133,0,0,-0.0114,-0.0108,-0.011,-0.01,-0.0088,-0.0088,-0.0062,-0.0057,-0.0055,-0.0014,-0.0005,0.0021,0.0054,0.0066,0.0074,0.0083,0.0106,0.0092,0.0089,0.0091,0.0127,0.0127,0.0126,0.0132,0.0132,0.0132,0,0,-0.0139,-0.0131,-0.0145,-0.0137,-0.0125,-0.0108,-0.011,-0.0087,-0.0075,-0.0063,-0.0033,-0.0012,0.0018,0.0042,0.0058,0.0047,0.0084,0.0052,0.003,0.0064,0.0063,0.0064,0.0096,0.01,0.0051,0.0051,0.0051,0,-0.0151,-0.0165,-0.0146,-0.0156,-0.0154,-0.0122,-0.0133,-0.0115,-0.0089,-0.008,-0.0068,-0.0018,0.0007,0.0029,0.0025,0.0038,0.0065,0.0043,0.0059,0.006,0.0061,0.0094,0.0099,0.0048,0.0049,0.0049,0.0049,0,-0.0185,-0.0195,-0.0203,-0.0205,-0.0198,-0.0203,-0.0178,-0.0168,-0.0149,-0.0127,-0.0103,-0.0063,-0.0034,-0.0023,-0.0002,0.0017,0.0035,0.0049,0.0068,0.0057,0.0093,0.0099,0.0045,0.0046,0.0046,0.0047,0,0,-0.0215,-0.0226,-0.023,-0.0241,-0.0226,-0.0226,-0.0219,-0.0203,-0.0201,-0.0166,-0.0156,-0.0115,-0.0088,-0.0068,-0.0036,-0.0006,0.0022,0.0021,0.0024,0.005,0.0098,0.0097,0.0103,0.004,0.004,0.0041,0.0119,0,-0.0249,-0.0286,-0.0276,-0.0302,-0.0316,-0.0285,-0.0283,-0.0262,-0.0234,-0.0215,-0.0164,-0.0144,-0.0107,-0.0096,-0.0058,0.0005,0.0035,-0.0,0.0108,0.0111,0.0109,0.0109,0.0043,0.0123,0.0125,0.0126,0.0126,0,-0.0287,-0.0306,-0.0345,-0.0355,-0.0358,-0.0366,-0.0355,-0.0348,-0.0306,-0.0284,-0.0243,-0.0199,-0.0146,-0.0119,-0.001,-0.0034,0.0024,0.0075,0.0079,0.01,0.012,0.0139,0.0137,0.0136,0.0136,0.0135,0.0134,0,-0.0326,-0.0353,-0.0389,-0.0393,-0.0398,-0.0407,-0.0405,-0.0374,-0.0371,-0.0327,-0.0317,-0.0239,-0.0207,-0.0115,-0.0009,-0.0008,0.0111,0.0125,0.018,0.0181,0.0181,0.018,0.0193,0.0193,0.0193,0.0192,0.0192,0,-0.0365,-0.0392,-0.0415,-0.0435,-0.0473,-0.0456,-0.048,-0.0461,-0.0438,-0.0435,-0.036,-0.0332,-0.0205,-0.0119,-0.0019,0.01,0.0106,0.0178,0.0201,0.0158,0.0153,0.0185,0.0183,0.0195,0.0195,0.0194,0.0194,0,-0.0401,-0.0417,-0.046,-0.0484,-0.0496,-0.0523,-0.0539,-0.055,-0.0519,-0.0511,-0.05,-0.0401,-0.0283,-0.0152,-0.0001,0.0078,0.0196,0.0232,0.0175,0.0193,0.0248,0.0242,0.0307,0.0308,0.0308,0.0309,0.0309,0,-0.0422,-0.0451,-0.0504,-0.0537,-0.0554,-0.059,-0.0613,-0.0597,-0.0601,-0.0547,-0.0543,-0.0436,-0.0356,-0.014,-0.0001,0.019,0.0212,0.0271,0.0262,0.0244,0.026,0.0253,0.0247,0.031,0.031,0.031,0.031,0,-0.0455,-0.048,-0.0515,-0.0586,-0.0628,-0.0668,-0.0694,-0.0705,-0.0676,-0.0653,-0.057,-0.0447,-0.0317,-0.0142,-0.0,0.0138,0.0236,0.0276,0.0276,0.0269,0.0248,0.0262,0.0255,0.0312,0.0312,0.0312,0.0312,0,-0.0475,-0.051,-0.0563,-0.0619,-0.0679,-0.072,-0.0734,-0.0724,-0.0718,-0.0651,-0.0623,-0.0466,-0.0374,-0.0169,-0.0031,0.01,0.0135,0.0175,0.0181,0.018,0.012,0.0074,0.0105,0,0,0,0,0,-0.0484,-0.0526,-0.0589,-0.0647,-0.0707,-0.0739,-0.0772,-0.0774,-0.0751,-0.0701,-0.0659,-0.053,-0.0309,-0.0208,-0.0077,-0.0027,0.0149,0.013,0.0196,0.0322,0.032,0.027,0,0,0,0,0,0,-0.0491,-0.0555,-0.0587,-0.0653,-0.0698,-0.0756,-0.0782,-0.0771,-0.0734,-0.0694,-0.0578,-0.0501,-0.029,-0.0385,-0.0075,-0.0033,0.0026,0.0237,0.024,0.0323,0.0321,0.032,0.0268,0,0,0,0,0]}]]